Flag for Switzerland Weather past 2 weeks in Worb, Bern, Switzerland

Now
66 °F

Mild.


Feels Like: 66 °F
Forecast: 57 / 85 °F
Wind: 2 mph from North

Location: Bern / Belp

Current Time: Aug 31, 2015 at 12:45:40 AM

Latest Report: Aug 30, 2015 at 11:20 PM


Visibility: N/A

Pressure: 30.09 "Hg (28.11 "Hg at 583m altitude)

Humidity: 88%

Dew point: 63 °F

Location of WorbLocation

Historic Weather in Worb — Graph

°F

Worb temperature yesterday

Maximum temperature yesterday: 88 °F (at 2:20 PM)
Minimum temperature yesterday: 63 °F (at 3:50 AM)
Average temperature yesterday: 74 °F

Past Weeks' High & Low Weather Summary

 TemperatureHumidityPressure
High90 °F (Aug 29, 6:20 PM)100% (Aug 15, 11:20 PM)30.27 "Hg (Aug 15, 11:20 PM)
Low48 °F (Aug 20, 3:20 AM)33% (Aug 30, 4:50 PM)29.74 "Hg (Aug 24, 4:20 AM)
Average64 °F81%30.05 "Hg
* Reported Aug 15 11:20 PM — Aug 30 11:20 PM, Worb, Weather by CustomWeather, © 2015

Note: Actual official high and low records may vary slightly from our data, if they occured in-between our weather recording intervals... More about our weather records

Advertising

Worb weather history for previous 24 hours

 ConditionsComfort  
Time TempWeatherWind HumidityBarometerVisibility
11:20 PM
Sun, Aug 30
66 °FMild.2 mph88%30.09 "HgN/A
10:50 PM66 °FPassing clouds.2 mph94%30.12 "HgN/A
10:20 PM68 °FClear.1 mph83%30.12 "Hg10 mi
9:20 PM70 °FClear.2 mph83%30.09 "Hg10 mi
8:50 PM72 °FSunny.1 mph78%30.09 "Hg10 mi
8:20 PM73 °FSunny.1 mph74%30.07 "Hg10 mi
7:50 PM79 °FSunny.2 mph54%30.07 "Hg10 mi
7:20 PM84 °FSunny.3 mph43%30.07 "Hg10 mi
6:50 PM86 °FPassing clouds.5 mph40%30.07 "HgN/A
6:20 PM88 °FPassing clouds.5 mph33%30.07 "HgN/A
5:50 PM88 °FPassing clouds.5 mph35%30.07 "HgN/A
5:20 PM88 °FPassing clouds.5 mph38%30.07 "HgN/A
4:50 PM88 °FPassing clouds.5 mph33%30.07 "HgN/A
4:20 PM88 °FPassing clouds.8 mph35%30.09 "HgN/A
3:50 PM88 °FSunny.6 mph35%30.09 "Hg10 mi
3:20 PM88 °FSunny.8 mph38%30.09 "Hg10 mi
2:50 PM88 °FPassing clouds.5 mph40%30.09 "HgN/A
2:20 PM88 °FPassing clouds.5 mph40%30.12 "HgN/A
1:50 PM86 °FSunny.2 mph46%30.12 "Hg10 mi
1:20 PM86 °FSunny.5 mph46%30.12 "Hg10 mi
12:50 PM84 °FPassing clouds.7 mph55%30.15 "HgN/A
12:20 PM82 °FPassing clouds.6 mph58%30.15 "HgN/A
11:50 AM81 °FSunny.2 mph62%30.15 "Hg10 mi
11:20 AM79 °FSunny.3 mph61%30.18 "Hg10 mi
10:50 AM79 °FSunny.1 mph70%30.18 "Hg10 mi
10:20 AM77 °FSunny.2 mph74%30.18 "Hg10 mi
9:50 AM75 °FSunny.2 mph78%30.18 "Hg10 mi
9:20 AM70 °FPassing clouds.1 mph88%30.18 "HgN/A
8:50 AM66 °FScattered clouds.1 mph100%30.18 "HgN/A
8:20 AM64 °FScattered clouds.1 mph100%30.18 "HgN/A
7:50 AM64 °FScattered clouds.1 mph100%30.18 "HgN/A
7:20 AM63 °FPassing clouds.1 mph100%30.18 "HgN/A
6:50 AM63 °FPassing clouds.1 mph100%30.18 "HgN/A
6:20 AM63 °FPassing clouds.3 mph100%30.18 "HgN/A
5:50 AM63 °FPassing clouds.1 mph100%30.18 "HgN/A
5:20 AM63 °FMild.1 mph100%30.18 "HgN/A
4:50 AM63 °FPassing clouds.2 mph100%30.18 "HgN/A
4:20 AM63 °FPassing clouds.No wind100%30.18 "HgN/A
3:50 AM63 °FPassing clouds.1 mph100%30.18 "HgN/A
3:20 AM64 °FPassing clouds.1 mph100%30.18 "HgN/A
2:50 AM64 °FMild.1 mph100%30.15 "HgN/A
2:20 AM66 °FClear.2 mph94%30.15 "Hg10 mi
1:50 AM64 °FClear.5 mph100%30.18 "Hg10 mi
1:20 AM64 °FClear.1 mph100%30.18 "Hg10 mi
12:50 AM66 °FClear.1 mph94%30.18 "Hg10 mi
12:20 AM66 °FClear.1 mph100%30.18 "Hg10 mi
Weather by CustomWeather, © 2015

See weather overviewHow to use our weather pages